TimeCDT,TemperatureF,Dew PointF,Humidity,Sea Level PressureIn,VisibilityMPH,Wind Direction,Wind SpeedMPH,Gust SpeedMPH,PrecipitationIn,Events,Conditions,WindDirDegrees,DateUTC
12:53 AM,73.0,69.1,87,29.89,10.0,Calm,Calm,-,N/A,,Mostly Cloudy,0,2013-10-01 05:53:00
1:14 AM,73.4,69.8,88,29.91,10.0,Calm,Calm,-,N/A,,Overcast,0,2013-10-01 06:14:00
1:43 AM,73.4,69.8,88,29.91,10.0,Calm,Calm,-,N/A,,Scattered Clouds,0,2013-10-01 06:43:00
1:53 AM,72.0,69.1,91,29.89,10.0,Calm,Calm,-,N/A,,Scattered Clouds,0,2013-10-01 06:53:00
2:00 AM,73.4,69.8,88,29.92,10.0,Calm,Calm,-,N/A,,Mostly Cloudy,0,2013-10-01 07:00:00
2:37 AM,73.4,69.8,88,29.91,10.0,Calm,Calm,-,N/A,,Overcast,0,2013-10-01 07:37:00
2:53 AM,73.0,70.0,90,29.89,10.0,Calm,Calm,-,N/A,,Overcast,0,2013-10-01 07:53:00
3:53 AM,73.0,70.0,90,29.90,9.0,Calm,Calm,-,N/A,,Scattered Clouds,0,2013-10-01 08:53:00
4:06 AM,71.6,69.8,94,29.92,8.0,Calm,Calm,-,N/A,,Mostly Cloudy,0,2013-10-01 09:06:00
4:53 AM,73.0,70.0,90,29.91,8.0,Calm,Calm,-,N/A,,Overcast,0,2013-10-01 09:53:00
5:53 AM,73.0,70.0,90,29.93,8.0,Calm,Calm,-,N/A,,Overcast,0,2013-10-01 10:53:00
6:53 AM,72.0,70.0,93,29.94,6.0,Calm,Calm,-,N/A,,Overcast,0,2013-10-01 11:53:00
7:19 AM,71.6,69.8,94,29.97,4.0,Calm,Calm,-,N/A,,Scattered Clouds,0,2013-10-01 12:19:00
7:48 AM,71.6,69.8,94,29.98,5.0,Calm,Calm,-,N/A,,Mostly Cloudy,0,2013-10-01 12:48:00
7:53 AM,73.0,70.0,90,29.96,5.0,Calm,Calm,-,N/A,,Mostly Cloudy,0,2013-10-01 12:53:00
8:53 AM,75.0,71.1,87,29.98,10.0,Variable,3.5,-,N/A,,Overcast,0,2013-10-01 13:53:00
9:53 AM,75.9,71.1,85,29.99,10.0,Calm,Calm,-,N/A,,Overcast,0,2013-10-01 14:53:00
10:19 AM,77.0,69.8,78,30.02,10.0,Calm,Calm,-,N/A,,Overcast,0,2013-10-01 15:19:00
10:33 AM,77.0,69.8,78,30.02,10.0,Calm,Calm,-,N/A,,Overcast,0,2013-10-01 15:33:00
10:53 AM,78.1,69.1,74,30.00,10.0,Variable,3.5,-,N/A,,Overcast,0,2013-10-01 15:53:00
11:53 AM,80.1,70.0,71,29.99,10.0,South,4.6,-,N/A,,Mostly Cloudy,170,2013-10-01 16:53:00
12:53 PM,82.0,68.0,62,29.98,10.0,Calm,Calm,-,N/A,,Overcast,0,2013-10-01 17:53:00
1:53 PM,84.0,66.9,56,29.96,10.0,Variable,4.6,-,N/A,,Scattered Clouds,0,2013-10-01 18:53:00
2:53 PM,84.0,68.0,58,29.94,10.0,Calm,Calm,-,N/A,,Mostly Cloudy,0,2013-10-01 19:53:00
3:53 PM,82.9,68.0,60,29.94,10.0,Variable,3.5,-,N/A,,Overcast,0,2013-10-01 20:53:00
4:53 PM,84.9,68.0,57,29.94,10.0,Variable,4.6,-,N/A,,Clear,0,2013-10-01 21:53:00
5:53 PM,82.9,68.0,60,29.94,10.0,Calm,Calm,-,N/A,,Clear,0,2013-10-01 22:53:00
6:53 PM,80.1,68.0,67,29.94,10.0,Calm,Calm,-,N/A,,Clear,0,2013-10-01 23:53:00
7:53 PM,75.0,69.1,82,29.96,10.0,Calm,Calm,-,N/A,,Clear,0,2013-10-02 00:53:00
8:53 PM,73.9,68.0,82,29.98,10.0,Calm,Calm,-,N/A,,Clear,0,2013-10-02 01:53:00
9:53 PM,73.0,69.1,87,30.00,10.0,Calm,Calm,-,N/A,,Clear,0,2013-10-02 02:53:00
10:53 PM,72.0,69.1,91,30.00,10.0,Calm,Calm,-,N/A,,Clear,0,2013-10-02 03:53:00
11:53 PM,73.0,69.1,87,29.99,10.0,Calm,Calm,-,N/A,,Scattered Clouds,0,2013-10-02 04:53:00